Total_Precipitation_Accumulation
0.00 0.00 0.00 0.00 0.00 0.00 0.00 0.00 0.00 0.00 0.00 0.00 0.00 0.00 0.00 0.00 0.00 0.00 0.00 0.00 0.00 0.00 0.00 0.00 0.00 0.00 0.00 0.00 0.00 0.00 0.00 0.00 0.00 0.00 0.00 0.00 0.00 0.00 0.01 0.01 0.11 0.14 0.03
0.00 0.00 0.00 0.00 0.00 0.00 0.00 0.00 0.00 0.00 0.00 0.00 0.00 0.00 0.00 0.00 0.00 0.00 0.00 0.00 0.00 0.00 0.00 0.00 0.00 0.00 0.00 0.00 0.00 0.00 0.00 0.00 0.00 0.00 0.00 0.00 0.00 0.00 0.00 0.00 0.09 0.08 0.01
0.00 0.00 0.00 0.00 0.00 0.00 0.00 0.00 0.00 0.00 0.00 0.00 0.00 0.00 0.00 0.00 0.00 0.00 0.00 0.00 0.00 0.00 0.00 0.00 0.00 0.00 0.00 0.00 0.00 0.00 0.00 0.00 0.00 0.00 0.01 0.02 0.00 0.00 0.00 0.00 0.00 0.00 0.00
0.00 0.00 0.00 0.00 0.00 0.00 0.00 0.00 0.00 0.00 0.00 0.00 0.00 0.00 0.00 0.00 0.00 0.00 0.00 0.00 0.00 0.00 0.00 0.00 0.00 0.00 0.00 0.00 0.00 0.00 0.00 0.00 0.00 0.00 0.02 0.08 0.01 0.00 0.00 0.00 0.00 0.00 0.00
0.00 0.00 0.00 0.00 0.00 0.00 0.00 0.00 0.00 0.00 0.00 0.00 0.00 0.00 0.00 0.00 0.00 0.00 0.00 0.00 0.00 0.00 0.00 0.00 0.00 0.00 0.00 0.00 0.00 0.00 0.00 0.00 0.00 0.00 0.01 0.02 0.03 0.03 0.00 0.00 0.00 0.00 0.00
0.00 0.00 0.00 0.00 0.00 0.00 0.00 0.00 0.00 0.00 0.00 0.00 0.00 0.00 0.00 0.01 0.01 0.00 0.00 0.00 0.00 0.00 0.00 0.00 0.00 0.00 0.00 0.00 0.00 0.00 0.01 0.01 0.00 0.00 0.01 0.02 0.10 0.10 0.03 0.06 0.05 0.02 0.01
0.00 0.00 0.00 0.00 0.00 0.00 0.00 0.00 0.00 0.00 0.00 0.00 0.00 0.00 0.00 0.01 0.01 0.01 0.00 0.00 0.00 0.00 0.00 0.00 0.00 0.00 0.00 0.00 0.00 0.00 0.00 0.01 0.01 0.02 0.04 0.07 0.13 0.12 0.11 0.27 0.29 0.20 0.11
0.00 0.00 0.00 0.00 0.00 0.00 0.00 0.00 0.00 0.00 0.00 0.00 0.00 0.00 0.00 0.00 0.00 0.00 0.00 0.00 0.01 0.02 0.01 0.00 0.00 0.00 0.00 0.00 0.00 0.01 0.01 0.01 0.00 0.00 0.01 0.06 0.12 0.14 0.24 0.44 0.45 0.38 0.29
0.00 0.00 0.00 0.00 0.00 0.00 0.01 0.01 0.00 0.00 0.00 0.00 0.00 0.00 0.00 0.00 0.00 0.00 0.00 0.00 0.01 0.02 0.03 0.02 0.01 0.00 0.01 0.01 0.02 0.02 0.02 0.03 0.01 0.02 0.02 0.02 0.04 0.05 0.19 0.33 0.33 0.31 0.30
0.00 0.00 0.00 0.00 0.00 0.00 0.00 0.01 0.01 0.01 0.01 0.01 0.00 0.00 0.00 0.00 0.01 0.01 0.02 0.02 0.01 0.02 0.03 0.03 0.03 0.03 0.05 0.06 0.07 0.07 0.07 0.04 0.02 0.01 0.02 0.02 0.05 0.09 0.19 0.23 0.22 0.23 0.24
0.00 0.00 0.00 0.00 0.00 0.00 0.00 0.00 0.01 0.01 0.01 0.01 0.01 0.01 0.01 0.01 0.06 0.11 0.14 0.17 0.11 0.07 0.05 0.05 0.07 0.10 0.10 0.06 0.11 0.22 0.16 0.03 0.02 0.01 0.01 0.02 0.09 0.17 0.24 0.22 0.22 0.22 0.23
0.00 0.00 0.00 0.00 0.00 0.00 0.00 0.00 0.00 0.00 0.01 0.01 0.03 0.09 0.11 0.14 0.14 0.07 0.20 0.22 0.15 0.12 0.08 0.08 0.23 0.20 0.11 0.06 0.28 0.69 0.26 0.06 0.04 0.04 0.04 0.06 0.14 0.24 0.32 0.24 0.20 0.24 0.25
0.00 0.00 0.00 0.00 0.01 0.00 0.00 0.00 0.00 0.01 0.06 0.06 0.07 0.14 0.24 0.25 0.15 0.07 0.07 0.13 0.20 0.19 0.16 0.21 0.30 0.15 0.13 0.19 0.27 0.40 0.25 0.13 0.08 0.09 0.14 0.17 0.23 0.34 0.37 0.25 0.21 0.23 0.24
0.00 0.00 0.00 0.00 0.01 0.01 0.01 0.01 0.01 0.02 0.05 0.07 0.11 0.13 0.25 0.24 0.17 0.12 0.11 0.09 0.16 0.20 0.29 0.27 0.24 0.21 0.22 0.19 0.19 0.17 0.20 0.27 0.17 0.17 0.24 0.20 0.16 0.27 0.36 0.27 0.22 0.21 0.22
0.00 0.00 0.00 0.00 0.00 0.01 0.02 0.02 0.02 0.02 0.03 0.04 0.11 0.13 0.21 0.27 0.23 0.25 0.23 0.19 0.13 0.21 0.31 0.36 0.35 0.35 0.29 0.23 0.18 0.12 0.10 0.15 0.19 0.21 0.25 0.19 0.14 0.20 0.25 0.28 0.23 0.19 0.18
0.00 0.00 0.01 0.01 0.02 0.02 0.03 0.06 0.08 0.08 0.10 0.12 0.19 0.27 0.40 0.47 0.49 0.50 0.43 0.37 0.30 0.33 0.36 0.47 0.47 0.51 0.41 0.39 0.22 0.17 0.19 0.17 0.17 0.19 0.18 0.32 0.32 0.17 0.16 0.19 0.22 0.22 0.19
0.01 0.01 0.03 0.04 0.07 0.10 0.14 0.17 0.20 0.22 0.27 0.37 0.49 0.53 0.68 0.82 0.85 0.81 0.65 0.46 0.47 0.62 0.69 0.60 0.53 0.64 0.42 0.38 0.34 0.42 0.44 0.34 0.25 0.23 0.20 0.24 0.28 0.17 0.12 0.11 0.17 0.21 0.22
0.03 0.05 0.09 0.12 0.17 0.28 0.36 0.37 0.41 0.41 0.48 0.55 0.59 0.56 0.61 0.77 0.82 0.82 0.58 0.36 0.49 0.74 0.82 0.75 0.71 0.70 0.59 0.59 0.60 0.65 0.64 0.51 0.34 0.27 0.19 0.15 0.14 0.08 0.11 0.19 0.17 0.17 0.24
0.05 0.11 0.22 0.31 0.38 0.51 0.59 0.63 0.63 0.59 0.55 0.53 0.50 0.42 0.40 0.43 0.49 0.55 0.34 0.28 0.47 0.64 0.68 0.67 0.70 0.77 0.66 0.69 0.75 0.69 0.55 0.42 0.30 0.23 0.18 0.13 0.12 0.09 0.06 0.15 0.11 0.15 0.26
0.13 0.22 0.36 0.46 0.50 0.45 0.38 0.39 0.40 0.40 0.38 0.35 0.29 0.23 0.20 0.20 0.24 0.36 0.30 0.27 0.45 0.54 0.51 0.68 0.75 0.82 0.69 0.64 0.66 0.45 0.33 0.22 0.20 0.14 0.11 0.10 0.07 0.05 0.04 0.05 0.14 0.16 0.27
0.23 0.27 0.30 0.33 0.29 0.21 0.19 0.15 0.16 0.17 0.22 0.24 0.23 0.19 0.15 0.14 0.19 0.33 0.32 0.32 0.39 0.43 0.41 0.56 0.67 0.68 0.51 0.71 0.79 0.37 0.17 0.10 0.10 0.08 0.06 0.05 0.05 0.05 0.07 0.07 0.09 0.13 0.29
0.40 0.43 0.36 0.29 0.25 0.16 0.10 0.07 0.06 0.07 0.10 0.11 0.12 0.13 0.11 0.14 0.18 0.24 0.25 0.26 0.30 0.34 0.34 0.39 0.48 0.52 0.44 0.70 0.79 0.64 0.33 0.16 0.10 0.06 0.08 0.08 0.08 0.09 0.11 0.13 0.15 0.20 0.25
0.86 0.78 0.56 0.37 0.29 0.15 0.08 0.04 0.04 0.04 0.04 0.05 0.05 0.06 0.07 0.11 0.15 0.16 0.17 0.21 0.26 0.28 0.31 0.36 0.47 0.58 0.49 0.54 0.74 0.83 0.58 0.29 0.23 0.17 0.19 0.23 0.23 0.25 0.24 0.28 0.34 0.38 0.37
0.90 0.75 0.53 0.34 0.24 0.16 0.11 0.09 0.09 0.06 0.04 0.03 0.04 0.05 0.06 0.08 0.08 0.09 0.12 0.23 0.30 0.35 0.40 0.39 0.44 0.52 0.54 0.47 0.54 0.67 0.70 0.66 0.54 0.30 0.21 0.23 0.28 0.29 0.28 0.28 0.29 0.35 0.41
0.52 0.45 0.33 0.31 0.29 0.23 0.19 0.18 0.14 0.07 0.03 0.02 0.03 0.05 0.06 0.05 0.05 0.05 0.06 0.11 0.23 0.31 0.36 0.37 0.39 0.44 0.50 0.48 0.47 0.51 0.61 0.71 0.67 0.51 0.28 0.21 0.27 0.28 0.30 0.31 0.30 0.32 0.38
0.19 0.18 0.16 0.20 0.24 0.21 0.20 0.20 0.17 0.13 0.09 0.06 0.06 0.08 0.07 0.06 0.05 0.04 0.05 0.08 0.13 0.15 0.19 0.26 0.30 0.34 0.38 0.41 0.44 0.47 0.51 0.53 0.57 0.64 0.51 0.39 0.35 0.36 0.44 0.48 0.49 0.47 0.45